This is the latest recevied weather packets stored in our database for station/object KB2SKP. If no packets are shown the sender has not sent any weather packets the latest 10 day(s).
| Time | Temp. | Humidity | Pressure | Rain* | Wind** | Luminosity | Snow |
|---|---|---|---|---|---|---|---|
| 1777508790 | 12.22° C | 92% | 1004.5 hPa | 0.51 mm | - | 0 W/m² | - |
| 1777508487 | 12.22° C | 91% | 1004.5 hPa | 0 mm | - | 0 W/m² | - |
| 1777508184 | 12.22° C | 90% | 1004.5 hPa | 0.51 mm | - | 0 W/m² | - |
| 1777507881 | 12.78° C | 89% | 1004.4 hPa | 0.51 mm | - | 0 W/m² | - |
| 1777507578 | 12.78° C | 87% | 1005 hPa | 0 mm | - | 0 W/m² | - |
| 1777507275 | 13.33° C | 83% | 1004.7 hPa | 0 mm | - | 0 W/m² | - |
| 1777506972 | 13.89° C | 82% | 1004.9 hPa | 0 mm | - | 0 W/m² | - |
| 1777506669 | 14.44° C | 78% | 1005 hPa | 0 mm | - | 0 W/m² | - |
| 1777506366 | 14.44° C | 76% | 1004.8 hPa | 0 mm | - | 1 W/m² | - |
| 1777506061 | 14.44° C | 76% | 1004.9 hPa | 0 mm | - | 1 W/m² | - |
| 1777505756 | 14.44° C | 77% | 1005 hPa | 0 mm | - | 1 W/m² | - |
| 1777505454 | 14.44° C | 76% | 1004.8 hPa | 0 mm | - | 1 W/m² | - |
| 1777505151 | 15° C | 76% | 1004.8 hPa | 0 mm | - | 3 W/m² | - |
| 1777504848 | 15° C | 75% | 1004.8 hPa | 0 mm | - | 6 W/m² | - |
| 1777504545 | 15° C | 75% | 1004.9 hPa | 0 mm | - | 7 W/m² | - |
| 1777504241 | 15° C | 75% | 1005 hPa | 0 mm | - | 7 W/m² | - |
| 1777503936 | 15° C | 74% | 1004.8 hPa | 0 mm | - | 7 W/m² | - |
| 1777503633 | 15° C | 73% | 1004.6 hPa | 0 mm | - | 5 W/m² | - |
| 1777503330 | 15° C | 73% | 1004.8 hPa | 0 mm | - | 4 W/m² | - |
| 1777503026 | 15° C | 72% | 1004.7 hPa | 0 mm | - | 6 W/m² | - |
| 1777502724 | 15.56° C | 72% | 1004.9 hPa | 0 mm | - | 6 W/m² | - |
| 1777502420 | 15.56° C | 70% | 1005.2 hPa | 0 mm | - | 6 W/m² | - |
| 1777502117 | 15.56° C | 69% | 1004.8 hPa | 0 mm | - | 13 W/m² | - |
| 1777501815 | 15.56° C | 68% | 1005.1 hPa | 0 mm | - | 25 W/m² | - |
| 1777501512 | 15.56° C | 68% | 1005.2 hPa | 0 mm | - | 13 W/m² | - |
* Rain latest hour (hover to see other rain measurements)
** Current wind speed in m/s (hover to see current wind gust speed)